Time,TemperatureF,DewpointF,PressureIn,WindDirection,WindDirectionDegrees,WindSpeedMPH,WindSpeedGustMPH,Humidity,HourlyPrecipIn,Conditions,Clouds,dailyrainin,SoftwareType,DateUTC
2013-10-07 00:01:00,42.4,29.1,30.44,NE,38,0.0,0.0,59,0.00,,,0.00,WeatherCatV1.21B27,2013-10-07 07:01:00,
2013-10-07 00:06:00,42.1,29.2,30.44,NE,38,0.0,0.0,60,0.00,,,0.00,WeatherCatV1.21B27,2013-10-07 07:06:00,
2013-10-07 00:11:00,42.1,29.2,30.44,NE,38,0.0,0.0,60,0.00,,,0.00,WeatherCatV1.21B27,2013-10-07 07:11:00,
2013-10-07 00:16:00,41.9,29.5,30.44,NE,38,0.0,0.0,61,0.00,,,0.00,WeatherCatV1.21B27,2013-10-07 07:16:00,
2013-10-07 00:21:00,41.9,29.5,30.44,NE,38,0.0,0.0,61,0.00,,,0.00,WeatherCatV1.21B27,2013-10-07 07:21:00,
2013-10-07 00:26:00,41.7,29.7,30.44,NE,38,0.0,0.0,62,0.00,,,0.00,WeatherCatV1.21B27,2013-10-07 07:26:00,
2013-10-07 00:31:00,41.4,28.9,30.44,NE,38,0.0,0.0,61,0.00,,,0.00,WeatherCatV1.21B27,2013-10-07 07:31:00,
2013-10-07 00:36:00,41.2,29.2,30.44,NE,38,0.0,0.0,62,0.00,,,0.00,WeatherCatV1.21B27,2013-10-07 07:36:00,
2013-10-07 00:41:00,41.2,29.5,30.44,NE,38,0.0,0.0,63,0.00,,,0.00,WeatherCatV1.21B27,2013-10-07 07:41:00,
2013-10-07 00:46:00,41.0,29.4,30.44,NE,38,0.0,0.0,63,0.00,,,0.00,WeatherCatV1.21B27,2013-10-07 07:46:00,
2013-10-07 00:52:00,41.0,29.4,30.44,NE,38,0.0,0.0,63,0.00,,,0.00,WeatherCatV1.21B27,2013-10-07 07:52:00,
2013-10-07 00:57:00,41.0,29.8,30.44,NE,38,0.0,0.0,64,0.00,,,0.00,WeatherCatV1.21B27,2013-10-07 07:57:00,
2013-10-07 01:02:00,40.8,30.0,30.47,NE,38,0.0,0.0,65,0.00,,,0.00,WeatherCatV1.21B27,2013-10-07 08:02:00,
2013-10-07 01:07:00,40.8,30.0,30.47,NE,38,0.0,0.0,65,0.00,,,0.00,WeatherCatV1.21B27,2013-10-07 08:07:00,
2013-10-07 01:12:00,40.6,29.8,30.47,NE,38,0.0,0.0,65,0.00,,,0.00,WeatherCatV1.21B27,2013-10-07 08:12:00,
2013-10-07 01:17:00,40.5,29.6,30.44,NE,38,0.0,0.0,65,0.00,,,0.00,WeatherCatV1.21B27,2013-10-07 08:17:00,
2013-10-07 01:22:00,40.3,29.8,30.44,NE,38,0.0,0.0,66,0.00,,,0.00,WeatherCatV1.21B27,2013-10-07 08:22:00,
2013-10-07 01:27:00,40.3,30.2,30.44,NE,38,0.0,0.0,67,0.00,,,0.00,WeatherCatV1.21B27,2013-10-07 08:27:00,
2013-10-07 01:32:00,40.3,30.6,30.44,NE,38,0.0,0.0,68,0.00,,,0.00,WeatherCatV1.21B27,2013-10-07 08:32:00,
2013-10-07 01:37:00,40.1,30.8,30.44,NE,38,0.0,0.0,69,0.00,,,0.00,WeatherCatV1.21B27,2013-10-07 08:37:00,
2013-10-07 01:42:00,40.1,30.8,30.44,NE,38,0.0,0.0,69,0.00,,,0.00,WeatherCatV1.21B27,2013-10-07 08:42:00,
2013-10-07 01:47:00,40.1,30.8,30.44,NE,38,0.0,0.0,69,0.00,,,0.00,WeatherCatV1.21B27,2013-10-07 08:47:00,
2013-10-07 01:52:00,40.3,31.3,30.44,NE,38,0.0,0.0,70,0.00,,,0.00,WeatherCatV1.21B27,2013-10-07 08:52:00,
2013-10-07 01:57:00,40.3,31.3,30.44,NE,38,0.0,0.0,70,0.00,,,0.00,WeatherCatV1.21B27,2013-10-07 08:57:00,
2013-10-07 02:02:00,40.1,31.1,30.44,NE,38,0.0,0.0,70,0.00,,,0.00,WeatherCatV1.21B27,2013-10-07 09:02:00,
2013-10-07 02:07:00,40.1,31.1,30.44,NE,38,0.0,0.0,70,0.00,,,0.00,WeatherCatV1.21B27,2013-10-07 09:07:00,
2013-10-07 02:12:00,39.9,31.3,30.44,NE,38,0.0,0.0,71,0.00,,,0.00,WeatherCatV1.21B27,2013-10-07 09:12:00,
2013-10-07 02:17:00,39.9,31.3,30.44,NE,38,0.0,0.0,71,0.00,,,0.00,WeatherCatV1.21B27,2013-10-07 09:17:00,
2013-10-07 02:22:00,40.1,31.8,30.44,NE,38,0.0,0.0,72,0.00,,,0.00,WeatherCatV1.21B27,2013-10-07 09:22:00,
2013-10-07 02:27:00,40.5,32.5,30.44,SSW,203,0.0,0.0,73,0.00,,,0.00,WeatherCatV1.21B27,2013-10-07 09:27:00,
2013-10-07 02:32:00,40.5,32.2,30.44,NNW,346,0.0,4.0,72,0.00,,,0.00,WeatherCatV1.21B27,2013-10-07 09:32:00,
2013-10-07 02:37:00,40.1,31.5,30.41,SSW,197,0.0,0.0,71,0.00,,,0.00,WeatherCatV1.21B27,2013-10-07 09:37:00,
2013-10-07 02:42:00,39.7,31.1,30.41,East,95,0.0,2.2,71,0.00,,,0.00,WeatherCatV1.21B27,2013-10-07 09:42:00,
2013-10-07 02:47:00,39.4,30.8,30.44,East,101,0.0,4.9,71,0.00,,,0.00,WeatherCatV1.21B27,2013-10-07 09:47:00,
2013-10-07 02:52:00,39.0,30.4,30.44,East,97,0.0,0.0,71,0.00,,,0.00,WeatherCatV1.21B27,2013-10-07 09:52:00,
2013-10-07 02:57:00,38.7,30.4,30.44,ESE,115,4.0,4.9,72,0.00,,,0.00,WeatherCatV1.21B27,2013-10-07 09:57:00,
2013-10-07 03:02:00,38.5,30.6,30.41,South,170,0.0,0.0,73,0.00,,,0.00,WeatherCatV1.21B27,2013-10-07 10:02:00,
2013-10-07 03:07:00,38.5,30.9,30.41,WNW,295,0.0,0.0,74,0.00,,,0.00,WeatherCatV1.21B27,2013-10-07 10:07:00,
2013-10-07 03:12:00,38.3,31.1,30.41,WSW,255,0.0,0.0,75,0.00,,,0.00,WeatherCatV1.21B27,2013-10-07 10:12:00,
2013-10-07 03:17:00,39.2,32.3,30.41,SE,125,0.0,0.0,76,0.00,,,0.00,WeatherCatV1.21B27,2013-10-07 10:17:00,
2013-10-07 03:22:00,40.8,34.2,30.41,SSW,211,3.1,4.0,77,0.00,,,0.00,WeatherCatV1.21B27,2013-10-07 10:22:00,
2013-10-07 03:27:00,42.4,34.1,30.41,SE,136,6.3,6.3,72,0.00,,,0.00,WeatherCatV1.21B27,2013-10-07 10:27:00,
2013-10-07 03:32:00,43.5,33.7,30.41,ESE,112,2.2,2.2,68,0.00,,,0.00,WeatherCatV1.21B27,2013-10-07 10:32:00,
2013-10-07 03:37:00,43.5,31.4,30.41,ENE,78,0.0,3.1,62,0.00,,,0.00,WeatherCatV1.21B27,2013-10-07 10:37:00,
2013-10-07 03:42:00,41.5,26.6,30.41,ESE,103,3.1,4.0,55,0.00,,,0.00,WeatherCatV1.21B27,2013-10-07 10:42:00,
2013-10-07 03:47:00,39.6,25.2,30.41,NW,324,3.1,3.1,56,0.00,,,0.00,WeatherCatV1.21B27,2013-10-07 10:47:00,
2013-10-07 03:52:00,38.3,24.8,30.41,NW,313,0.0,0.0,58,0.00,,,0.00,WeatherCatV1.21B27,2013-10-07 10:52:00,
2013-10-07 03:57:00,37.8,25.5,30.41,NW,313,0.0,0.0,61,0.00,,,0.00,WeatherCatV1.21B27,2013-10-07 10:57:00,
2013-10-07 04:02:00,37.8,26.7,30.41,NW,313,0.0,0.0,64,0.00,,,0.00,WeatherCatV1.21B27,2013-10-07 11:02:00,
2013-10-07 04:07:00,38.1,27.8,30.41,NW,313,0.0,0.0,66,0.00,,,0.00,WeatherCatV1.21B27,2013-10-07 11:07:00,
2013-10-07 04:12:00,38.5,28.5,30.41,NW,313,0.0,0.0,67,0.00,,,0.00,WeatherCatV1.21B27,2013-10-07 11:12:00,
2013-10-07 04:17:00,38.7,29.0,30.41,NW,313,0.0,0.0,68,0.00,,,0.00,WeatherCatV1.21B27,2013-10-07 11:17:00,
2013-10-07 04:22:00,39.0,29.7,30.41,ESE,108,2.2,3.6,69,0.00,,,0.00,WeatherCatV1.21B27,2013-10-07 11:22:00,
2013-10-07 04:27:00,40.3,30.9,30.41,SSW,194,5.4,5.4,69,0.00,,,0.00,WeatherCatV1.21B27,2013-10-07 11:27:00,
2013-10-07 04:32:00,42.1,29.2,30.41,SSE,164,2.2,3.1,60,0.00,,,0.00,WeatherCatV1.21B27,2013-10-07 11:32:00,
2013-10-07 04:37:00,43.3,27.4,30.41,ESE,113,2.7,5.4,53,0.00,,,0.00,WeatherCatV1.21B27,2013-10-07 11:37:00,
2013-10-07 04:42:00,42.3,25.9,30.41,South,173,0.0,4.0,52,0.00,,,0.00,WeatherCatV1.21B27,2013-10-07 11:42:00,
2013-10-07 04:47:00,40.5,24.7,30.41,ESE,105,5.4,5.4,53,0.00,,,0.00,WeatherCatV1.21B27,2013-10-07 11:47:00,
2013-10-07 04:52:00,40.6,25.8,30.41,ESE,113,0.0,3.1,55,0.00,,,0.00,WeatherCatV1.21B27,2013-10-07 11:52:00,
2013-10-07 04:57:00,41.9,26.0,30.41,South,177,3.1,6.3,53,0.00,,,0.00,WeatherCatV1.21B27,2013-10-07 11:57:00,
2013-10-07 05:02:00,43.2,26.3,30.41,ESE,113,0.0,3.6,51,0.00,,,0.00,WeatherCatV1.21B27,2013-10-07 12:02:00,
2013-10-07 05:07:00,43.7,25.3,30.41,South,189,2.2,6.3,48,0.00,,,0.00,WeatherCatV1.21B27,2013-10-07 12:07:00,
2013-10-07 05:12:00,44.4,25.5,30.41,ESE,112,3.1,3.1,47,0.00,,,0.00,WeatherCatV1.21B27,2013-10-07 12:12:00,
2013-10-07 05:17:00,44.6,23.5,30.41,ESE,117,3.6,7.6,43,0.00,,,0.00,WeatherCatV1.21B27,2013-10-07 12:17:00,
2013-10-07 05:22:00,43.5,22.5,30.41,NW,320,2.2,2.2,43,0.00,,,0.00,WeatherCatV1.21B27,2013-10-07 12:22:00,
2013-10-07 05:27:00,39.9,22.3,30.41,ENE,69,3.6,4.0,49,0.00,,,0.00,WeatherCatV1.21B27,2013-10-07 12:27:00,
2013-10-07 05:32:00,38.3,22.7,30.41,NE,55,0.0,3.1,53,0.00,,,0.00,WeatherCatV1.21B27,2013-10-07 12:32:00,
2013-10-07 05:37:00,37.2,22.6,30.41,NE,55,0.0,0.0,55,0.00,,,0.00,WeatherCatV1.21B27,2013-10-07 12:37:00,
2013-10-07 05:42:00,36.7,22.5,30.41,NE,55,0.0,0.0,56,0.00,,,0.00,WeatherCatV1.21B27,2013-10-07 12:42:00,
2013-10-07 05:47:00,36.7,22.9,30.41,NE,56,0.0,0.0,57,0.00,,,0.00,WeatherCatV1.21B27,2013-10-07 12:47:00,
2013-10-07 05:52:00,36.9,23.9,30.41,SSW,194,0.0,2.2,59,0.00,,,0.00,WeatherCatV1.21B27,2013-10-07 12:52:00,
2013-10-07 05:57:00,37.4,26.7,30.41,North,11,3.1,3.1,65,0.00,,,0.00,WeatherCatV1.21B27,2013-10-07 12:57:00,
2013-10-07 06:02:00,37.2,26.2,30.41,WSW,244,0.0,4.0,64,0.00,,,0.00,WeatherCatV1.21B27,2013-10-07 13:02:00,
2013-10-07 06:07:00,36.9,25.5,30.41,SW,225,0.0,2.2,63,0.00,,,0.00,WeatherCatV1.21B27,2013-10-07 13:07:00,
2013-10-07 06:12:00,37.0,26.4,30.41,SW,225,2.7,3.6,65,0.00,,,0.00,WeatherCatV1.21B27,2013-10-07 13:12:00,
2013-10-07 06:17:00,38.1,28.9,30.41,SW,232,0.0,0.0,69,0.00,,,0.00,WeatherCatV1.21B27,2013-10-07 13:17:00,
2013-10-07 06:22:00,38.1,26.3,30.41,NE,45,0.0,4.0,62,0.00,,,0.00,WeatherCatV1.21B27,2013-10-07 13:22:00,
2013-10-07 06:27:00,37.4,25.6,30.41,NE,45,0.0,0.0,62,0.00,,,0.00,WeatherCatV1.21B27,2013-10-07 13:27:00,
2013-10-07 06:32:00,37.4,26.0,30.41,NE,45,0.0,0.0,63,0.00,,,0.00,WeatherCatV1.21B27,2013-10-07 13:32:00,
2013-10-07 06:37:00,37.6,26.5,30.41,NE,45,0.0,0.0,64,0.00,,,0.00,WeatherCatV1.21B27,2013-10-07 13:37:00,
2013-10-07 06:42:00,37.9,27.2,30.41,NE,45,0.0,2.7,65,0.00,,,0.00,WeatherCatV1.21B27,2013-10-07 13:42:00,
2013-10-07 06:47:00,37.9,26.9,30.41,NNW,331,0.0,0.0,64,0.00,,,0.00,WeatherCatV1.21B27,2013-10-07 13:47:00,
2013-10-07 06:52:00,37.9,26.9,30.41,NNW,331,0.0,0.0,64,0.00,,,0.00,WeatherCatV1.21B27,2013-10-07 13:52:00,
2013-10-07 06:57:00,38.3,27.6,30.41,NNW,331,0.0,0.0,65,0.00,,,0.00,WeatherCatV1.21B27,2013-10-07 13:57:00,
2013-10-07 07:02:00,38.8,28.1,30.41,NNW,331,0.0,0.0,65,0.00,,,0.00,WeatherCatV1.21B27,2013-10-07 14:02:00,
2013-10-07 07:07:00,39.0,28.3,30.41,NNW,331,0.0,0.0,65,0.00,,,0.00,WeatherCatV1.21B27,2013-10-07 14:07:00,
2013-10-07 07:12:00,39.4,28.2,30.41,NNW,331,0.0,0.0,64,0.00,,,0.00,WeatherCatV1.21B27,2013-10-07 14:12:00,
2013-10-07 07:17:00,39.2,27.7,30.41,NNW,331,0.0,0.0,63,0.00,,,0.00,WeatherCatV1.21B27,2013-10-07 14:17:00,
2013-10-07 07:22:00,39.4,27.5,30.41,NNW,331,0.0,0.0,62,0.00,,,0.00,WeatherCatV1.21B27,2013-10-07 14:22:00,
2013-10-07 07:27:00,39.6,27.6,30.41,West,262,0.0,0.0,62,0.00,,,0.00,WeatherCatV1.21B27,2013-10-07 14:27:00,
2013-10-07 07:32:00,39.7,27.8,30.41,West,262,0.0,0.0,62,0.00,,,0.00,WeatherCatV1.21B27,2013-10-07 14:32:00,
2013-10-07 07:37:00,39.9,27.6,30.41,SSW,196,0.0,0.0,61,0.00,,,0.00,WeatherCatV1.21B27,2013-10-07 14:37:00,
2013-10-07 07:42:00,40.5,28.1,30.41,SSW,196,0.0,0.0,61,0.00,,,0.00,WeatherCatV1.21B27,2013-10-07 14:42:00,
2013-10-07 07:47:00,40.6,27.0,30.38,NW,306,0.0,5.4,58,0.00,,,0.00,WeatherCatV1.21B27,2013-10-07 14:47:00,
2013-10-07 07:52:00,40.3,26.7,30.38,NW,306,0.0,0.0,58,0.00,,,0.00,WeatherCatV1.21B27,2013-10-07 14:52:00,
2013-10-07 07:57:00,40.5,26.9,30.38,NW,306,0.0,0.0,58,0.00,,,0.00,WeatherCatV1.21B27,2013-10-07 14:57:00,
2013-10-07 08:02:00,40.6,27.5,30.41,NW,306,0.0,0.0,59,0.00,,,0.00,WeatherCatV1.21B27,2013-10-07 15:02:00,
2013-10-07 08:07:00,40.8,27.6,30.41,NW,306,0.0,0.0,59,0.00,,,0.00,WeatherCatV1.21B27,2013-10-07 15:07:00,
2013-10-07 08:12:00,41.2,28.0,30.41,NW,306,0.0,0.0,59,0.00,,,0.00,WeatherCatV1.21B27,2013-10-07 15:12:00,
2013-10-07 08:17:00,41.4,28.1,30.41,NW,306,0.0,0.0,59,0.00,,,0.00,WeatherCatV1.21B27,2013-10-07 15:17:00,
2013-10-07 08:22:00,41.2,28.0,30.41,NW,306,0.0,0.0,59,0.00,,,0.00,WeatherCatV1.21B27,2013-10-07 15:22:00,
2013-10-07 08:27:00,41.5,28.3,30.41,NW,306,0.0,0.0,59,0.00,,,0.00,WeatherCatV1.21B27,2013-10-07 15:27:00,
2013-10-07 08:32:00,41.5,28.7,30.41,NW,306,0.0,0.0,60,0.00,,,0.00,WeatherCatV1.21B27,2013-10-07 15:32:00,
2013-10-07 08:37:00,41.9,29.5,30.41,NW,306,0.0,0.0,61,0.00,,,0.00,WeatherCatV1.21B27,2013-10-07 15:37:00,
2013-10-07 08:42:00,41.7,29.3,30.41,NW,306,0.0,0.0,61,0.00,,,0.00,WeatherCatV1.21B27,2013-10-07 15:42:00,
2013-10-07 08:47:00,41.7,29.3,30.41,NW,306,0.0,0.0,61,0.00,,,0.00,WeatherCatV1.21B27,2013-10-07 15:47:00,
2013-10-07 08:52:00,42.1,30.8,30.41,NW,306,0.0,0.0,64,0.00,,,0.00,WeatherCatV1.21B27,2013-10-07 15:52:00,
2013-10-07 08:57:00,42.1,31.2,30.41,NW,306,0.0,0.0,65,0.00,,,0.00,WeatherCatV1.21B27,2013-10-07 15:57:00,
2013-10-07 09:02:00,41.9,31.0,30.41,NW,306,0.0,0.0,65,0.00,,,0.00,WeatherCatV1.21B27,2013-10-07 16:02:00,
2013-10-07 09:07:00,41.5,29.9,30.41,NW,306,0.0,0.0,63,0.00,,,0.00,WeatherCatV1.21B27,2013-10-07 16:07:00,
2013-10-07 09:12:00,41.9,31.0,30.41,NW,306,0.0,0.0,65,0.00,,,0.00,WeatherCatV1.21B27,2013-10-07 16:12:00,
2013-10-07 09:17:00,42.8,32.6,30.38,NW,306,0.0,0.0,67,0.00,,,0.00,WeatherCatV1.21B27,2013-10-07 16:17:00,
2013-10-07 09:22:00,43.0,32.0,30.38,NW,306,0.0,0.0,65,0.00,,,0.00,WeatherCatV1.21B27,2013-10-07 16:22:00,
2013-10-07 09:27:00,44.1,33.8,30.38,NW,306,0.0,0.0,67,0.00,,,0.00,WeatherCatV1.21B27,2013-10-07 16:27:00,
2013-10-07 09:32:00,44.2,32.5,30.38,NW,306,0.0,0.0,63,0.00,,,0.00,WeatherCatV1.21B27,2013-10-07 16:32:00,
2013-10-07 09:37:00,43.7,31.5,30.38,NW,306,0.0,0.0,62,0.00,,,0.00,WeatherCatV1.21B27,2013-10-07 16:37:00,
2013-10-07 09:42:00,43.7,31.9,30.38,NW,306,0.0,0.0,63,0.00,,,0.00,WeatherCatV1.21B27,2013-10-07 16:42:00,
2013-10-07 09:47:00,44.1,32.7,30.38,NW,306,0.0,0.0,64,0.00,,,0.00,WeatherCatV1.21B27,2013-10-07 16:47:00,
2013-10-07 09:52:00,44.4,33.4,30.38,NW,306,0.0,0.0,65,0.00,,,0.00,WeatherCatV1.21B27,2013-10-07 16:52:00,
2013-10-07 09:57:00,45.5,34.4,30.38,NW,306,0.0,0.0,65,0.00,,,0.00,WeatherCatV1.21B27,2013-10-07 16:57:00,
2013-10-07 10:02:00,45.9,32.8,30.38,NW,306,3.1,3.6,60,0.00,,,0.00,WeatherCatV1.21B27,2013-10-07 17:02:00,
2013-10-07 10:07:00,45.9,30.2,30.38,NW,306,0.0,2.2,54,0.00,,,0.00,WeatherCatV1.21B27,2013-10-07 17:07:00,
2013-10-07 10:12:00,45.3,29.2,30.38,NW,324,4.0,4.0,53,0.00,,,0.00,WeatherCatV1.21B27,2013-10-07 17:12:00,
2013-10-07 10:17:00,45.5,30.3,30.38,NW,324,0.0,0.0,55,0.00,,,0.00,WeatherCatV1.21B27,2013-10-07 17:17:00,
2013-10-07 10:22:00,46.9,32.1,30.38,North,357,0.0,0.0,56,0.00,,,0.00,WeatherCatV1.21B27,2013-10-07 17:22:00,
2013-10-07 10:27:00,47.5,30.3,30.38,North,357,0.0,2.7,51,0.00,,,0.00,WeatherCatV1.21B27,2013-10-07 17:27:00,
2013-10-07 10:32:00,48.0,30.3,30.38,NNE,32,0.0,0.0,50,0.00,,,0.00,WeatherCatV1.21B27,2013-10-07 17:32:00,
2013-10-07 10:37:00,48.7,30.4,30.38,NNE,32,0.0,0.0,49,0.00,,,0.00,WeatherCatV1.21B27,2013-10-07 17:37:00,
2013-10-07 10:42:00,49.8,31.4,30.38,NNE,32,0.0,0.0,49,0.00,,,0.00,WeatherCatV1.21B27,2013-10-07 17:42:00,
2013-10-07 10:47:00,50.5,31.6,30.38,NNE,32,0.0,0.0,48,0.00,,,0.00,WeatherCatV1.21B27,2013-10-07 17:47:00,
2013-10-07 10:52:00,51.8,31.7,30.38,East,97,0.0,3.6,46,0.00,,,0.00,WeatherCatV1.21B27,2013-10-07 17:52:00,
2013-10-07 10:57:00,54.3,31.7,30.38,ESE,112,0.0,4.0,42,0.00,,,0.00,WeatherCatV1.21B27,2013-10-07 17:57:00,
2013-10-07 11:02:00,56.3,32.9,30.38,ENE,76,0.0,0.0,41,0.00,,,0.00,WeatherCatV1.21B27,2013-10-07 18:02:00,
2013-10-07 11:07:00,57.7,31.0,30.38,NE,56,0.0,0.0,36,0.00,,,0.00,WeatherCatV1.21B27,2013-10-07 18:07:00,
2013-10-07 11:12:00,58.6,30.4,30.38,SE,143,0.0,6.7,34,0.00,,,0.00,WeatherCatV1.21B27,2013-10-07 18:12:00,
2013-10-07 11:17:00,58.8,29.8,30.35,East,87,0.0,0.0,33,0.00,,,0.00,WeatherCatV1.21B27,2013-10-07 18:17:00,
2013-10-07 11:22:00,57.9,27.5,30.35,NW,310,0.0,3.6,31,0.00,,,0.00,WeatherCatV1.21B27,2013-10-07 18:22:00,
2013-10-07 11:27:00,58.1,26.8,30.35,SSE,167,3.1,7.2,30,0.00,,,0.00,WeatherCatV1.21B27,2013-10-07 18:27:00,
2013-10-07 11:32:00,58.8,25.8,30.38,ESE,111,0.0,3.6,28,0.00,,,0.00,WeatherCatV1.21B27,2013-10-07 18:32:00,
2013-10-07 11:37:00,59.4,26.3,30.38,SW,226,2.7,5.4,28,0.00,,,0.00,WeatherCatV1.21B27,2013-10-07 18:37:00,
2013-10-07 11:42:00,59.5,26.4,30.38,SSE,164,0.0,7.6,28,0.00,,,0.00,WeatherCatV1.21B27,2013-10-07 18:42:00,
2013-10-07 11:47:00,59.7,26.6,30.35,NNE,31,0.0,3.6,28,0.00,,,0.00,WeatherCatV1.21B27,2013-10-07 18:47:00,
2013-10-07 11:52:00,60.6,26.5,30.35,SSW,198,4.0,5.8,27,0.00,,,0.00,WeatherCatV1.21B27,2013-10-07 18:52:00,
2013-10-07 11:57:00,61.7,26.5,30.35,SSW,205,4.5,6.7,26,0.00,,,0.00,WeatherCatV1.21B27,2013-10-07 18:57:00,
2013-10-07 12:02:00,62.1,26.8,30.38,SSW,197,0.0,0.0,26,0.00,,,0.00,WeatherCatV1.21B27,2013-10-07 19:02:00,
2013-10-07 12:07:00,61.3,25.2,30.38,West,264,2.2,5.8,25,0.00,,,0.00,WeatherCatV1.21B27,2013-10-07 19:07:00,
2013-10-07 12:12:00,60.6,25.5,30.38,SSE,154,0.0,5.8,26,0.00,,,0.00,WeatherCatV1.21B27,2013-10-07 19:12:00,
2013-10-07 12:17:00,60.3,25.2,30.35,NNW,338,4.9,5.8,26,0.00,,,0.00,WeatherCatV1.21B27,2013-10-07 19:17:00,
2013-10-07 12:22:00,60.1,25.1,30.35,ENE,60,0.0,5.8,26,0.00,,,0.00,WeatherCatV1.21B27,2013-10-07 19:22:00,
2013-10-07 12:27:00,59.7,24.8,30.35,South,181,2.7,3.6,26,0.00,,,0.00,WeatherCatV1.21B27,2013-10-07 19:27:00,
2013-10-07 12:32:00,59.7,24.8,30.35,SSW,197,3.1,5.4,26,0.00,,,0.00,WeatherCatV1.21B27,2013-10-07 19:32:00,
2013-10-07 12:37:00,59.7,24.8,30.35,NW,304,3.1,7.2,26,0.00,,,0.00,WeatherCatV1.21B27,2013-10-07 19:37:00,
2013-10-07 12:42:00,60.4,25.4,30.35,West,274,4.9,5.8,26,0.00,,,0.00,WeatherCatV1.21B27,2013-10-07 19:42:00,
2013-10-07 12:47:00,61.2,25.1,30.35,WSW,248,8.3,8.3,25,0.00,,,0.00,WeatherCatV1.21B27,2013-10-07 19:47:00,
2013-10-07 12:52:00,61.7,25.5,30.35,SE,140,3.1,6.3,25,0.00,,,0.00,WeatherCatV1.21B27,2013-10-07 19:52:00,
2013-10-07 12:57:00,61.9,25.7,30.35,SE,131,0.0,0.0,25,0.00,,,0.00,WeatherCatV1.21B27,2013-10-07 19:57:00,
2013-10-07 13:02:00,61.7,25.5,30.35,WNW,303,0.0,3.1,25,0.00,,,0.00,WeatherCatV1.21B27,2013-10-07 20:02:00,
2013-10-07 13:07:00,61.3,25.2,30.35,SE,133,8.3,8.3,25,0.00,,,0.00,WeatherCatV1.21B27,2013-10-07 20:07:00,
2013-10-07 13:12:00,62.1,25.8,30.35,NNW,334,2.7,12.3,25,0.00,,,0.00,WeatherCatV1.21B27,2013-10-07 20:12:00,
2013-10-07 13:17:00,62.8,26.4,30.35,South,184,3.6,5.4,25,0.00,,,0.00,WeatherCatV1.21B27,2013-10-07 20:17:00,
2013-10-07 13:22:00,62.2,26.0,30.35,East,93,3.6,3.6,25,0.00,,,0.00,WeatherCatV1.21B27,2013-10-07 20:22:00,
2013-10-07 13:27:00,61.9,25.7,30.35,SW,233,3.1,9.6,25,0.00,,,0.00,WeatherCatV1.21B27,2013-10-07 20:27:00,
2013-10-07 13:32:00,61.9,25.7,30.35,South,182,3.6,4.9,25,0.00,,,0.00,WeatherCatV1.21B27,2013-10-07 20:32:00,
2013-10-07 13:37:00,62.1,25.8,30.35,NW,324,3.1,3.1,25,0.00,,,0.00,WeatherCatV1.21B27,2013-10-07 20:37:00,
2013-10-07 13:42:00,62.6,26.3,30.35,SW,219,5.4,6.7,25,0.00,,,0.00,WeatherCatV1.21B27,2013-10-07 20:42:00,
2013-10-07 13:47:00,63.1,26.8,30.35,WNW,284,2.7,4.9,25,0.00,,,0.00,WeatherCatV1.21B27,2013-10-07 20:47:00,
2013-10-07 13:52:00,62.6,26.3,30.35,South,174,5.4,7.6,25,0.00,,,0.00,WeatherCatV1.21B27,2013-10-07 20:52:00,
2013-10-07 13:57:00,62.4,26.1,30.35,NW,305,3.6,8.1,25,0.00,,,0.00,WeatherCatV1.21B27,2013-10-07 20:57:00,
2013-10-07 14:02:00,62.8,26.4,30.35,NE,55,0.0,5.4,25,0.00,,,0.00,WeatherCatV1.21B27,2013-10-07 21:02:00,
2013-10-07 14:07:00,63.0,25.6,30.35,West,264,0.0,4.9,24,0.00,,,0.00,WeatherCatV1.21B27,2013-10-07 21:07:00,
2013-10-07 14:12:00,63.0,26.6,30.35,SSW,212,4.0,7.6,25,0.00,,,0.00,WeatherCatV1.21B27,2013-10-07 21:12:00,
2013-10-07 14:18:00,62.2,26.0,30.35,ENE,78,2.2,5.8,25,0.00,,,0.00,WeatherCatV1.21B27,2013-10-07 21:18:00,
2013-10-07 14:22:00,60.1,25.1,30.35,SSW,192,2.7,5.8,26,0.00,,,0.00,WeatherCatV1.21B27,2013-10-07 21:22:00,
2013-10-07 14:28:00,57.9,28.2,30.35,South,177,0.0,3.6,32,0.00,,,0.00,WeatherCatV1.21B27,2013-10-07 21:28:00,
2013-10-07 14:33:00,55.8,30.5,30.35,SE,140,0.0,11.9,38,0.00,,,0.00,WeatherCatV1.21B27,2013-10-07 21:33:00,
2013-10-07 14:38:00,54.1,29.7,30.35,East,98,0.0,2.7,39,0.00,,,0.00,WeatherCatV1.21B27,2013-10-07 21:38:00,
2013-10-07 14:43:00,53.4,34.2,30.35,South,179,0.0,4.0,48,0.00,,,0.00,WeatherCatV1.21B27,2013-10-07 21:43:00,
2013-10-07 14:48:00,51.8,37.1,30.32,West,281,0.0,2.2,57,0.00,,,0.00,WeatherCatV1.21B27,2013-10-07 21:48:00,
2013-10-07 14:53:00,51.6,39.8,30.32,East,93,3.1,8.3,64,0.00,,,0.00,WeatherCatV1.21B27,2013-10-07 21:53:00,
2013-10-07 14:58:00,51.4,38.4,30.32,East,89,3.6,4.0,61,0.00,,,0.04,WeatherCatV1.21B27,2013-10-07 21:58:00,
2013-10-07 15:03:00,50.7,37.3,30.32,ENE,63,0.0,0.0,60,0.00,,,0.04,WeatherCatV1.21B27,2013-10-07 22:03:00,
2013-10-07 15:08:00,50.5,38.8,30.32,ENE,62,0.0,0.0,64,0.00,,,0.04,WeatherCatV1.21B27,2013-10-07 22:08:00,
2013-10-07 15:13:00,50.4,38.7,30.32,ENE,62,0.0,0.0,64,0.00,,,0.04,WeatherCatV1.21B27,2013-10-07 22:13:00,
2013-10-07 15:18:00,51.1,40.1,30.35,SE,145,3.1,3.1,66,0.00,,,0.04,WeatherCatV1.21B27,2013-10-07 22:18:00,
2013-10-07 15:22:00,52.2,41.2,30.35,WSW,243,2.2,2.2,66,0.00,,,0.04,WeatherCatV1.21B27,2013-10-07 22:22:00,
2013-10-07 15:28:00,53.2,41.4,30.35,SE,144,3.1,3.1,64,0.00,,,0.04,WeatherCatV1.21B27,2013-10-07 22:28:00,
2013-10-07 15:33:00,53.6,39.6,30.32,West,279,0.0,0.0,59,0.00,,,0.04,WeatherCatV1.21B27,2013-10-07 22:33:00,
2013-10-07 15:38:00,54.1,38.8,30.32,ESE,120,0.0,2.7,56,0.00,,,0.04,WeatherCatV1.21B27,2013-10-07 22:38:00,
2013-10-07 15:43:00,55.2,38.4,30.32,East,91,0.0,3.1,53,0.00,,,0.04,WeatherCatV1.21B27,2013-10-07 22:43:00,
2013-10-07 15:48:00,55.8,36.9,30.32,West,264,4.0,4.9,49,0.00,,,0.04,WeatherCatV1.21B27,2013-10-07 22:48:00,
2013-10-07 15:53:00,55.6,36.2,30.32,SE,137,0.0,0.0,48,0.00,,,0.04,WeatherCatV1.21B27,2013-10-07 22:53:00,
2013-10-07 15:58:00,54.9,35.5,30.32,South,180,0.0,4.0,48,0.00,,,0.04,WeatherCatV1.21B27,2013-10-07 22:58:00,
2013-10-07 16:03:00,54.3,34.5,30.32,South,174,0.0,7.6,47,0.00,,,0.04,WeatherCatV1.21B27,2013-10-07 23:03:00,
2013-10-07 16:08:00,54.3,32.9,30.32,WNW,300,0.0,3.1,44,0.00,,,0.04,WeatherCatV1.21B27,2013-10-07 23:08:00,
2013-10-07 16:13:00,54.7,30.8,30.32,South,185,0.0,6.3,40,0.00,,,0.04,WeatherCatV1.21B27,2013-10-07 23:13:00,
2013-10-07 16:18:00,55.2,31.3,30.32,NW,305,5.8,5.8,40,0.00,,,0.04,WeatherCatV1.21B27,2013-10-07 23:18:00,
2013-10-07 16:23:00,55.9,30.7,30.32,WSW,243,0.0,3.1,38,0.00,,,0.04,WeatherCatV1.21B27,2013-10-07 23:23:00,
2013-10-07 16:28:00,55.9,28.7,30.32,South,169,7.6,8.1,35,0.00,,,0.04,WeatherCatV1.21B27,2013-10-07 23:28:00,
2013-10-07 16:33:00,56.3,28.3,30.32,SW,234,8.1,8.1,34,0.00,,,0.04,WeatherCatV1.21B27,2013-10-07 23:33:00,
2013-10-07 16:38:00,56.8,24.9,30.32,ENE,64,5.8,8.7,29,0.00,,,0.04,WeatherCatV1.21B27,2013-10-07 23:38:00,
2013-10-07 16:43:00,57.2,25.2,30.32,ESE,111,2.7,6.3,29,0.00,,,0.04,WeatherCatV1.21B27,2013-10-07 23:43:00,
2013-10-07 16:48:00,57.0,24.2,30.32,WSW,247,0.0,4.0,28,0.00,,,0.04,WeatherCatV1.21B27,2013-10-07 23:48:00,
2013-10-07 16:53:00,56.7,24.8,30.32,NE,55,5.4,6.3,29,0.00,,,0.04,WeatherCatV1.21B27,2013-10-07 23:53:00,
2013-10-07 16:58:00,56.3,24.5,30.32,SSE,155,4.0,4.0,29,0.00,,,0.04,WeatherCatV1.21B27,2013-10-07 23:58:00,
2013-10-07 17:03:00,56.1,23.5,30.32,South,169,0.0,2.2,28,0.00,,,0.04,WeatherCatV1.21B27,2013-10-08 00:03:00,
2013-10-07 17:08:00,55.8,23.2,30.32,NE,37,0.0,4.0,28,0.00,,,0.04,WeatherCatV1.21B27,2013-10-08 00:08:00,
2013-10-07 17:13:00,55.6,23.8,30.32,East,89,0.0,4.0,29,0.00,,,0.04,WeatherCatV1.21B27,2013-10-08 00:13:00,
2013-10-07 17:18:00,55.8,24.0,30.32,West,281,0.0,6.3,29,0.00,,,0.04,WeatherCatV1.21B27,2013-10-08 00:18:00,
2013-10-07 17:23:00,55.8,24.0,30.32,WNW,303,0.0,7.6,29,0.00,,,0.04,WeatherCatV1.21B27,2013-10-08 00:23:00,
2013-10-07 17:28:00,55.4,23.7,30.32,WNW,297,0.0,0.0,29,0.00,,,0.04,WeatherCatV1.21B27,2013-10-08 00:28:00,
2013-10-07 17:33:00,55.0,23.4,30.32,ENE,68,2.7,3.6,29,0.00,,,0.04,WeatherCatV1.21B27,2013-10-08 00:33:00,
2013-10-07 17:38:00,54.9,24.0,30.32,SE,145,4.0,4.0,30,0.00,,,0.04,WeatherCatV1.21B27,2013-10-08 00:38:00,
2013-10-07 17:43:00,55.0,23.4,30.32,South,187,0.0,3.1,29,0.00,,,0.04,WeatherCatV1.21B27,2013-10-08 00:43:00,
2013-10-07 17:48:00,54.9,23.2,30.35,ESE,117,0.0,5.4,29,0.00,,,0.04,WeatherCatV1.21B27,2013-10-08 00:48:00,
2013-10-07 17:53:00,54.5,22.9,30.35,SSW,213,0.0,0.0,29,0.00,,,0.04,WeatherCatV1.21B27,2013-10-08 00:53:00,
2013-10-07 17:58:00,54.1,22.6,30.35,NE,47,5.4,5.4,29,0.00,,,0.04,WeatherCatV1.21B27,2013-10-08 00:58:00,
2013-10-07 18:03:00,54.1,22.6,30.35,SSW,212,0.0,10.1,29,0.00,,,0.04,WeatherCatV1.21B27,2013-10-08 01:03:00,
2013-10-07 18:08:00,54.0,23.2,30.35,South,173,3.1,5.4,30,0.00,,,0.04,WeatherCatV1.21B27,2013-10-08 01:08:00,
2013-10-07 18:13:00,53.8,23.1,30.35,South,182,2.7,8.3,30,0.00,,,0.04,WeatherCatV1.21B27,2013-10-08 01:13:00,
2013-10-07 18:18:00,53.4,23.5,30.35,NE,35,0.0,0.0,31,0.00,,,0.04,WeatherCatV1.21B27,2013-10-08 01:18:00,
2013-10-07 18:23:00,53.1,23.2,30.35,WNW,298,0.0,0.0,31,0.00,,,0.04,WeatherCatV1.21B27,2013-10-08 01:23:00,
2013-10-07 18:28:00,52.9,23.1,30.35,ESE,106,0.0,0.0,31,0.00,,,0.04,WeatherCatV1.21B27,2013-10-08 01:28:00,
2013-10-07 18:33:00,52.7,22.9,30.35,ESE,113,0.0,4.0,31,0.00,,,0.04,WeatherCatV1.21B27,2013-10-08 01:33:00,
2013-10-07 18:38:00,53.1,22.5,30.35,East,94,0.0,5.4,30,0.00,,,0.04,WeatherCatV1.21B27,2013-10-08 01:38:00,
2013-10-07 18:43:00,53.1,21.7,30.35,SW,234,3.1,5.8,29,0.00,,,0.04,WeatherCatV1.21B27,2013-10-08 01:43:00,
2013-10-07 18:48:00,52.9,21.5,30.35,NW,304,0.0,4.0,29,0.00,,,0.04,WeatherCatV1.21B27,2013-10-08 01:48:00,
2013-10-07 18:53:00,52.5,20.4,30.35,NNW,334,2.7,4.9,28,0.00,,,0.04,WeatherCatV1.21B27,2013-10-08 01:53:00,
2013-10-07 18:58:00,52.0,19.9,30.35,ESE,110,2.7,4.9,28,0.00,,,0.04,WeatherCatV1.21B27,2013-10-08 01:58:00,
2013-10-07 19:03:00,51.6,19.6,30.35,ENE,77,4.0,4.9,28,0.00,,,0.04,WeatherCatV1.21B27,2013-10-08 02:03:00,
2013-10-07 19:08:00,51.3,19.3,30.35,NNW,327,3.6,4.9,28,0.00,,,0.04,WeatherCatV1.21B27,2013-10-08 02:08:00,
2013-10-07 19:13:00,51.1,19.1,30.35,ENE,63,0.0,3.6,28,0.00,,,0.04,WeatherCatV1.21B27,2013-10-08 02:13:00,
2013-10-07 19:18:00,50.7,18.8,30.35,NNE,29,2.2,3.6,28,0.00,,,0.04,WeatherCatV1.21B27,2013-10-08 02:18:00,
2013-10-07 19:23:00,50.5,18.7,30.35,WNW,287,0.0,0.0,28,0.00,,,0.04,WeatherCatV1.21B27,2013-10-08 02:23:00,
2013-10-07 19:28:00,50.2,18.4,30.35,ENE,64,3.1,3.1,28,0.00,,,0.04,WeatherCatV1.21B27,2013-10-08 02:28:00,
2013-10-07 19:33:00,49.8,18.0,30.38,WSW,241,0.0,0.0,28,0.00,,,0.04,WeatherCatV1.21B27,2013-10-08 02:33:00,
2013-10-07 19:38:00,50.0,18.2,30.38,WSW,256,2.7,5.4,28,0.00,,,0.04,WeatherCatV1.21B27,2013-10-08 02:38:00,
2013-10-07 19:43:00,50.5,18.7,30.38,NW,322,2.7,5.8,28,0.00,,,0.04,WeatherCatV1.21B27,2013-10-08 02:43:00,
2013-10-07 19:48:00,50.2,17.5,30.38,ENE,71,3.6,4.9,27,0.00,,,0.04,WeatherCatV1.21B27,2013-10-08 02:48:00,
2013-10-07 19:53:00,50.2,18.4,30.38,SSE,150,0.0,6.3,28,0.00,,,0.04,WeatherCatV1.21B27,2013-10-08 02:53:00,
2013-10-07 19:58:00,49.6,18.7,30.38,SW,230,0.0,0.0,29,0.00,,,0.04,WeatherCatV1.21B27,2013-10-08 02:58:00,
2013-10-07 20:03:00,49.1,17.4,30.38,SSE,166,0.0,3.1,28,0.00,,,0.04,WeatherCatV1.21B27,2013-10-08 03:03:00,
2013-10-07 20:08:00,48.7,17.9,30.38,SE,134,0.0,0.0,29,0.00,,,0.04,WeatherCatV1.21B27,2013-10-08 03:08:00,
2013-10-07 20:13:00,48.2,17.5,30.38,East,90,0.0,2.2,29,0.00,,,0.04,WeatherCatV1.21B27,2013-10-08 03:13:00,
2013-10-07 20:18:00,48.2,17.5,30.38,NNW,341,0.0,4.0,29,0.00,,,0.04,WeatherCatV1.21B27,2013-10-08 03:18:00,
2013-10-07 20:23:00,48.0,18.1,30.38,WSW,251,0.0,0.0,30,0.00,,,0.04,WeatherCatV1.21B27,2013-10-08 03:23:00,
2013-10-07 20:28:00,47.7,17.8,30.38,East,95,0.0,0.0,30,0.00,,,0.04,WeatherCatV1.21B27,2013-10-08 03:28:00,
2013-10-07 20:33:00,47.7,17.8,30.38,South,170,0.0,3.6,30,0.00,,,0.04,WeatherCatV1.21B27,2013-10-08 03:33:00,
2013-10-07 20:38:00,47.7,18.5,30.38,South,170,0.0,0.0,31,0.00,,,0.04,WeatherCatV1.21B27,2013-10-08 03:38:00,
2013-10-07 20:43:00,47.5,18.4,30.38,SSW,207,4.9,5.8,31,0.00,,,0.04,WeatherCatV1.21B27,2013-10-08 03:43:00,
2013-10-07 20:48:00,47.3,19.0,30.38,SSW,194,0.0,4.0,32,0.00,,,0.04,WeatherCatV1.21B27,2013-10-08 03:48:00,
2013-10-07 20:53:00,46.9,18.6,30.38,SSW,207,0.0,0.0,32,0.00,,,0.04,WeatherCatV1.21B27,2013-10-08 03:53:00,
2013-10-07 20:58:00,46.6,18.3,30.38,ESE,119,0.0,0.0,32,0.00,,,0.04,WeatherCatV1.21B27,2013-10-08 03:58:00,
2013-10-07 21:01:00,46.4,18.2,30.38,ESE,119,0.0,0.0,32,0.00,,,0.04,WeatherCatV1.21B27,2013-10-08 04:01:00,
2013-10-07 21:06:00,46.2,18.7,30.35,SSE,168,0.0,3.1,33,0.00,,,0.04,WeatherCatV1.21B27,2013-10-08 04:06:00,
2013-10-07 21:11:00,45.9,19.1,30.35,SE,142,0.0,3.6,34,0.00,,,0.04,WeatherCatV1.21B27,2013-10-08 04:11:00,
2013-10-07 21:16:00,45.5,19.5,30.35,SW,224,4.0,5.4,35,0.00,,,0.04,WeatherCatV1.21B27,2013-10-08 04:16:00,
2013-10-07 21:21:00,45.5,20.1,30.38,SW,222,0.0,0.0,36,0.00,,,0.04,WeatherCatV1.21B27,2013-10-08 04:21:00,
2013-10-07 21:26:00,45.3,20.0,30.38,SSW,213,0.0,2.7,36,0.00,,,0.04,WeatherCatV1.21B27,2013-10-08 04:26:00,
2013-10-07 21:31:00,45.3,20.6,30.38,SW,232,0.0,3.1,37,0.00,,,0.04,WeatherCatV1.21B27,2013-10-08 04:31:00,
2013-10-07 21:36:00,44.8,20.7,30.38,NE,54,4.0,4.0,38,0.00,,,0.04,WeatherCatV1.21B27,2013-10-08 04:36:00,
2013-10-07 21:41:00,44.8,20.7,30.38,SSE,159,2.7,2.7,38,0.00,,,0.04,WeatherCatV1.21B27,2013-10-08 04:41:00,
2013-10-07 21:46:00,44.8,20.7,30.38,WSW,248,3.1,5.4,38,0.00,,,0.04,WeatherCatV1.21B27,2013-10-08 04:46:00,
2013-10-07 21:51:00,44.8,20.7,30.41,ESE,114,0.0,3.1,38,0.00,,,0.04,WeatherCatV1.21B27,2013-10-08 04:51:00,
2013-10-07 21:56:00,44.8,20.7,30.41,South,176,0.0,0.0,38,0.00,,,0.04,WeatherCatV1.21B27,2013-10-08 04:56:00,
2013-10-07 22:01:00,44.6,20.6,30.41,SSW,196,3.6,4.9,38,0.00,,,0.04,WeatherCatV1.21B27,2013-10-08 05:01:00,
2013-10-07 22:06:00,44.6,20.6,30.41,SSW,193,3.1,6.3,38,0.00,,,0.04,WeatherCatV1.21B27,2013-10-08 05:06:00,
2013-10-07 22:11:00,44.6,20.6,30.41,South,184,0.0,3.6,38,0.00,,,0.04,WeatherCatV1.21B27,2013-10-08 05:11:00,
2013-10-07 22:16:00,44.4,20.4,30.41,West,268,0.0,3.6,38,0.00,,,0.04,WeatherCatV1.21B27,2013-10-08 05:16:00,
2013-10-07 22:21:00,44.6,20.6,30.41,NW,323,0.0,0.0,38,0.00,,,0.04,WeatherCatV1.21B27,2013-10-08 05:21:00,
2013-10-07 22:26:00,44.6,20.6,30.41,ESE,117,0.0,2.2,38,0.00,,,0.04,WeatherCatV1.21B27,2013-10-08 05:26:00,
2013-10-07 22:31:00,44.2,20.3,30.41,ESE,117,0.0,0.0,38,0.00,,,0.04,WeatherCatV1.21B27,2013-10-08 05:31:00,
2013-10-07 22:36:00,43.9,20.5,30.41,SSW,201,0.0,3.6,39,0.00,,,0.04,WeatherCatV1.21B27,2013-10-08 05:36:00,
2013-10-07 22:41:00,43.3,20.1,30.41,SSE,158,0.0,0.0,39,0.00,,,0.04,WeatherCatV1.21B27,2013-10-08 05:41:00,
2013-10-07 22:46:00,42.8,19.6,30.41,South,180,0.0,0.0,39,0.00,,,0.04,WeatherCatV1.21B27,2013-10-08 05:46:00,
2013-10-07 22:51:00,42.6,20.0,30.41,South,183,0.0,2.2,40,0.00,,,0.04,WeatherCatV1.21B27,2013-10-08 05:51:00,
2013-10-07 22:56:00,42.8,20.2,30.41,SW,221,0.0,0.0,40,0.00,,,0.04,WeatherCatV1.21B27,2013-10-08 05:56:00,
2013-10-07 23:01:00,43.0,20.3,30.41,SSW,213,0.0,0.0,40,0.00,,,0.04,WeatherCatV1.21B27,2013-10-08 06:01:00,
2013-10-07 23:06:00,43.3,20.6,30.41,SE,133,0.0,3.1,40,0.00,,,0.04,WeatherCatV1.21B27,2013-10-08 06:06:00,
2013-10-07 23:11:00,43.2,20.5,30.41,ESE,116,0.0,4.0,40,0.00,,,0.04,WeatherCatV1.21B27,2013-10-08 06:11:00,
2013-10-07 23:16:00,43.0,20.3,30.41,ESE,116,0.0,0.0,40,0.00,,,0.04,WeatherCatV1.21B27,2013-10-08 06:16:00,
2013-10-07 23:21:00,42.4,19.9,30.41,ESE,115,0.0,3.1,40,0.00,,,0.04,WeatherCatV1.21B27,2013-10-08 06:21:00,
2013-10-07 23:26:00,42.3,20.3,30.41,ESE,115,0.0,0.0,41,0.00,,,0.04,WeatherCatV1.21B27,2013-10-08 06:26:00,
2013-10-07 23:31:00,41.7,19.8,30.41,ESE,115,0.0,0.0,41,0.00,,,0.04,WeatherCatV1.21B27,2013-10-08 06:31:00,
2013-10-07 23:36:00,41.4,20.0,30.41,ESE,115,0.0,0.0,42,0.00,,,0.04,WeatherCatV1.21B27,2013-10-08 06:36:00,
2013-10-07 23:41:00,41.0,20.2,30.41,ESE,104,0.0,3.6,43,0.00,,,0.04,WeatherCatV1.21B27,2013-10-08 06:41:00,
2013-10-07 23:46:00,41.0,20.2,30.41,ESE,111,3.1,3.1,43,0.00,,,0.04,WeatherCatV1.21B27,2013-10-08 06:46:00,
2013-10-07 23:51:00,41.0,20.8,30.41,SSW,200,0.0,5.8,44,0.00,,,0.04,WeatherCatV1.21B27,2013-10-08 06:51:00,
2013-10-07 23:56:00,41.0,20.8,30.41,South,174,0.0,2.7,44,0.00,,,0.04,WeatherCatV1.21B27,2013-10-08 06:56:00,